Home > Weather > Rainy River > Past weeks

Flag for Canada Weather for the Past 2 Weeks in Rainy River, Ontario, Canada

Now
0 °F

Passing clouds.


Feels Like: -17 °F
Forecast: -11 / 3 °F
Wind: 12 mph from Northwest

Location: Baudette International Airport

Current Time: Feb 9, 2016 at 1:51:43 AM

Latest Report: Feb 9, 2016 at 12:53 AM


Visibility: 10 mi

Pressure: 30.20 "Hg

Humidity: 79%

Dew point: -5 °F

Location of Rainy RiverLocation

Historic Weather in Rainy River — Graph

°F

Rainy River Temperature Yesterday

Maximum temperature yesterday: 6 °F (at 3:53 PM)
Minimum temperature yesterday: 2 °F (at 5:53 AM)
Average temperature yesterday: 4 °F

High & Low Weather Summary for the Past Weeks

 TemperatureHumidityPressure
High36 °F (Jan 30, 12:53 PM)96% (Jan 31, 9:53 AM)30.28 "Hg (Jan 31, 9:53 AM)
Low-4 °F (Feb 3, 7:53 AM)53% (Feb 3, 2:53 PM)29.26 "Hg (Jan 30, 1:53 AM)
Average19 °F76%29.86 "Hg
* Reported Jan 24 11:53 PM — Feb 8 11:53 PM, Rainy River, Weather by CustomWeather, © 2016

Note: Actual official high and low records may vary slightly from our data, if they occured in-between our weather recording intervals... More about our weather records

Advertising

Rainy River Weather History for the Previous 24 Hours

 ConditionsComfort  
Time TempWeatherWind HumidityBarometerVisibility
11:53 PM
Mon, Feb 8
2 °FPartly cloudy.12 mph80%30.21 "Hg10 mi
10:53 PM3 °FOvercast.13 mph76%30.21 "Hg10 mi
9:53 PM4 °FOvercast.18 mph76%30.20 "Hg5 mi
8:53 PM5 °FMostly cloudy.15 mph72%30.19 "Hg10 mi
7:53 PM5 °FOvercast.18 mph72%30.18 "Hg10 mi
6:53 PM6 °FLight snow. Overcast.15 mph69%30.18 "Hg7 mi
5:53 PM6 °FLight snow. Overcast.18 mph69%30.18 "Hg5 mi
4:53 PM6 °FLight snow. Overcast.15 mph69%30.14 "Hg3 mi
3:53 PM6 °FLight snow. Overcast.15 mph69%30.13 "Hg3 mi
2:53 PM5 °FLight snow. Overcast.23 mph69%30.13 "Hg3 mi
2:04 PM5 °FLight snow. More clouds than sun.23 mph69%30.03 "Hg2 mi
1:53 PM5 °FLight snow. More clouds than sun.22 mph69%30.12 "Hg2 mi
12:53 PM4 °FLight snow. Cloudy.17 mph73%30.12 "Hg2 mi
12:02 PM4 °FLight snow. Mostly cloudy.21 mph73%30.03 "Hg2 mi
11:53 AM4 °FLight snow. Overcast.18 mph73%30.12 "Hg2 mi
10:53 AM4 °FLight snow. Overcast.17 mph73%30.11 "Hg3 mi
9:53 AM3 °FLight snow. Overcast.20 mph72%30.11 "Hg2 mi
9:04 AM3 °FLight snow. Overcast.20 mph72%30.01 "Hg3 mi
8:53 AM3 °FLight snow. Overcast.17 mph72%30.10 "Hg2 mi
8:01 AM3 °FLight snow. More clouds than sun.22 mph76%30.00 "Hg2 mi
6:53 AM3 °FOvercast.16 mph72%30.07 "Hg10 mi
5:53 AM2 °FOvercast.18 mph76%30.05 "Hg9 mi
4:53 AM3 °FLight snow. Overcast.20 mph76%30.03 "Hg3 mi
4:01 AM4 °FLight snow. Overcast.21 mph76%29.93 "Hg2 mi
2:53 AM4 °FLight snow. Overcast.20 mph76%29.99 "Hg1 mi
1:53 AM4 °FLight snow. Overcast.18 mph76%29.97 "Hg2 mi
Weather by CustomWeather, © 2016

See weather overviewHow to use our weather pages